Location: Angola by the Bay
(38.6709°N, 75.1746°W)
Time: 16:30:25
(UTC+00:00)

Gurwin Techsat 1B - Visible Passes

Search period start: 14 December 2025 00:00
Search period end: 24 December 2025 00:00
Orbit: 809 x 812 km, 99.0° (Epoch: 13 December)

Date Brightness Start Highest point End Pass type
(mag) Time Alt. Az. Time Alt. Az. Time Alt. Az.
14 Dec 11.7 08:24:25 10° E 08:24:28 10° E 08:24:29 10° E visible
14 Dec 8.5 09:59:35 10° NNE 10:04:55 87° WNW 10:10:14 10° SSW visible
14 Dec 10.3 11:42:32 10° NW 11:43:56 11° WNW 11:45:21 10° WNW visible
15 Dec 9.2 09:36:09 10° NNE 09:41:23 57° ESE 09:46:34 10° S visible
15 Dec 9.9 11:17:13 10° NNW 11:20:44 18° WNW 11:24:14 10° WSW visible
15 Dec 12.0 22:39:51 10° WSW 22:41:07 11° W 22:42:23 10° WNW visible
16 Dec 10.1 09:12:56 10° NNE 09:17:45 34° E 09:22:29 10° SSE visible
16 Dec 9.4 10:52:56 10° N 10:57:26 29° WNW 11:01:56 10° SW visible
16 Dec 11.4 22:13:36 10° SW 22:17:18 19° W 22:21:01 10° NW visible
17 Dec 10.9 08:50:09 10° NE 08:54:01 20° E 08:57:52 10° SE visible
17 Dec 8.8 10:29:00 10° N 10:34:04 47° WNW 10:39:06 10° SW visible
18 Dec 11.5 08:28:27 10° ENE 08:30:13 12° E 08:31:58 10° ESE visible
18 Dec 8.4 10:05:17 10° N 10:10:37 78° WNW 10:15:54 10° SSW visible
19 Dec 9.0 09:41:47 10° NNE 09:47:03 63° ESE 09:52:19 10° S visible
19 Dec 10.0 11:23:08 10° NNW 11:26:21 16° WNW 11:29:33 10° W visible
20 Dec 9.9 09:18:31 10° NNE 09:23:27 37° E 09:28:19 10° SSE visible
20 Dec 9.5 10:58:44 10° N 11:03:04 26° WNW 11:07:24 10° WSW visible
20 Dec 11.5 22:19:39 10° SW 22:23:02 17° W 22:26:26 10° NW visible
21 Dec 10.8 08:55:37 10° NE 08:59:44 23° E 09:03:50 10° SE visible
21 Dec 8.9 10:34:44 10° N 10:39:43 42° WNW 10:44:40 10° SW visible
22 Dec 11.4 08:33:30 10° ENE 08:35:57 13° E 08:38:23 10° ESE visible
22 Dec 8.5 10:10:59 10° N 10:16:16 70° WNW 10:21:32 10° SSW visible
23 Dec 8.8 09:47:26 10° NNE 09:52:45 71° ESE 09:58:01 10° S visible
23 Dec 10.1 11:29:05 10° NNW 11:31:57 15° WNW 11:34:49 10° W visible
